STARLINK-38373, 100502

Orbit data source: Space-Track

STARLINK-38373, 100502 is a payload satellite owned by SpaceX/Seattle (US) in LEO that was launched on Wed, 26 Aug 2026 UTC launched from the Air Force Western Test Range (AFWTR). Payload-class satellites include a variety of spacecraft equipped with specific instruments for various scientific and technological missions. These include communications satellites like Starlink; space stations such as the ISS; scientific satellites like the Hubble; Earth observation satellites from companies like Planet Labs, Umbra, and HawkEye 360; GPS; miniature CubeSats for education and research; and military/defense satellites.

Loading next visibility...
Identifier
100502, 2026-197A
Orbit
LEO
Country
Flag of USUS
Related business
Manufacturer
SpaceX/Seattle
Mission
Operational spacecraft
Bus & Motor
STARLINK V2MO, Unknown motor
Mass
575 kg wet, ~530 kg dry
Launch date (UTC)
2026-08-26 (2 weeks ago)
Launch vehicle
Unknown
Launch site
Air Force Western Test Range (AFWTR)
Object type
Payload
Rocket body
Debris
Shape & HBR
BOX + PAN, 17.7 m
Radar Cross Section
RCS unknown

Expand to show TLE details & history
Last TLE update: 11 hours ago

TLE from 11 hours ago
0 STARLINK-38373
1 A0502U 26197A   26251.28598828 -.00812912  00000-0 -50725-2 0  9994
2 A0502  69.9991 156.3557 0003894 278.2293  81.8465 15.78734696  2067
Epoch: 2026-09-08T06:51Z
TLE epoch observation values (Epoch: 2026-09-08T06:51:49.387Z)
Latitude
-0.00006°
Longitude
66.04531°
Altitude
336.165 km
Speed
7.707 km/s
True Right ascension
10h 25m 25s
True Declination
0° 00' 00"
Sunlit
Object was in daylight at epoch
Visualization orbit readout
Latitude
Unknown
Longitude
Unknown
Altitude
Unknown
Speed
Unknown
Apparent Right ascension
Unknown
Apparent Declination
Unknown
Sunlit
N/A
Visualization observer readout
Local Sidereal Time
10:29:17
Azimuth
Unknown
Elevation
Unknown
Doppler factor
Unknown
Orbital elements
Apogee altitude
334.513 km
Perigee altitude
329.287 km
Semi-major axis
6,710.037 km
Eccentricity
0.00039
Inclination
69.9991°
RAAN
156.3557°
Arg. of periapsis
278.2293°
True anomaly
81.89067°
Mean anomaly
81.8465°
Eccentric anomaly
81.86859°
Mean motion
3.94872 °/min
Orbital period
91.17 mins
BSTAR
-0.0050725
Loading maneuver chart data...
Computing Atmospheric mass density...
Loading historical data...
Loading historical data...
Loading historical data...
Loading historical data...
Loading historical data...
Loading historical data...
Loading historical data...

Documentation

Showing up to 5 results
|